Overview Statistics Trail Chart Weather Telemetry Raw packets
 

This is the latest recevied weather packets stored in our database for station/object KC9DRE. If no packets are shown the sender has not sent any weather packets the latest 10 day(s).

<< 19 20 21 22 23 24 25 >>
Time Temp. Humidity Pressure Rain* Wind** Luminosity Snow
1777777034 2.22° C 90% 1019.7 hPa 0 mm - 0 W/m² -
1777776731 2.22° C 89% 1019.8 hPa 0 mm - 0 W/m² -
1777776427 2.78° C 88% 1019.6 hPa 0 mm - 0 W/m² -
1777776125 2.78° C 87% 1019.6 hPa 0 mm - 0 W/m² -
1777775822 2.78° C 87% 1019.4 hPa 0 mm - 0 W/m² -
1777775518 2.78° C 86% 1019.6 hPa 0 mm - 0 W/m² -
1777775214 3.33° C 85% 1019.6 hPa 0 mm - 0 W/m² -
1777774914 3.33° C 84% 1019.4 hPa 0 mm - 0 W/m² -
1777774611 3.89° C 84% 1019.6 hPa 0 mm - 0 W/m² -
1777774308 3.89° C 83% 1019.3 hPa 0 mm - 0 W/m² -
1777774005 3.89° C 81% 1019.1 hPa 0 mm - 0 W/m² -
1777773702 4.44° C 80% 1019.2 hPa 0 mm - 0 W/m² -
1777773399 5° C 80% 1019.1 hPa 0 mm - 0 W/m² -
1777773096 5° C 79% 1019.1 hPa 0 mm - 0 W/m² -
1777772792 5.56° C 78% 1019 hPa 0 mm - 0 W/m² -
1777772490 5.56° C 77% 1018.7 hPa 0 mm - 0 W/m² -
1777772187 6.11° C 76% 1018.6 hPa 0 mm - 0 W/m² -
1777771885 6.67° C 74% 1018.6 hPa 0 mm - 0 W/m² -
1777771582 6.67° C 73% 1018.7 hPa 0 mm - 0 W/m² -
1777771278 7.22° C 72% 1018.6 hPa 0 mm - 0 W/m² -
1777770975 7.22° C 72% 1018.4 hPa 0 mm - 0 W/m² -
1777770672 7.78° C 72% 1018.5 hPa 0 mm - 0 W/m² -
1777770368 7.78° C 69% 1018.4 hPa 0 mm - 0 W/m² -
1777770066 8.33° C 69% 1018.4 hPa 0 mm - 0 W/m² -
1777769763 8.89° C 68% 1018.2 hPa 0 mm - 0 W/m² -

* Rain latest hour (hover to see other rain measurements)
** Current wind speed in m/s (hover to see current wind gust speed)